Location: Bartshausen
(51.8454°N, 9.8167°E)
Time: 22:25:32
(UTC+00:00)

Iridium 4 Rocket - Pass Details

Date: 18 February 2026
Orbit: 579 x 887 km, 86.9° (Epoch: 11 March)

Event Time Altitude Azimuth Distance (km) Brightness Sun altitude
Rises 19:52:00 0° 350° (N) 3,068 7.0 -29.8°
Reaches altitude 10° 19:54:30 10° 342° (NNW) 2,098 6.2 -30.2°
Maximum altitude 19:58:40 35° 277° (W) 1,026 4.6 -30.8°
Enters shadow 19:58:50 35° 272° (W) 1,027 4.6 -30.8°
